Location: Austin
(30.3000°N, 97.7500°W)
Time: 11:42:37
(UTC-05:00)

CBERS-1 - Pass Details

Date: 03 April 2024
Orbit: 767 x 775 km, 98.8° (Epoch: 21 April)

Event Time Altitude Azimuth Distance (km) Brightness Sun altitude
Rises 05:55:57 0° 9° (N) 3,245 7.6 -17.9°
Reaches altitude 10° 05:58:16 10° 7° (N) 2,314 6.8 -17.5°
Maximum altitude 06:03:20 69° 285° (WNW) 823 3.9 -16.4°
Drops below altitude 10° 06:08:21 10° 203° (SSW) 2,298 6.1 -15.4°
Enters shadow 06:08:44 - 202° (SSW) 2,449 6.3 -15.3°
